Weather History for KCKI - July, 2013

Change the Weather History Date:

Tuesday, July 23, 2013

  Actual Average (KFLO) Record (KFLO)
Temperature  
Mean Temperature 83 °F 81 °F  
Max Temperature 89 °F 91 °F 104 °F (1952)
Min Temperature 77 °F 72 °F 59 °F (2007)
Degree Days  
Heating Degree Days 0 0  
Month to date heating degree days 0  
Since 1 June heating degree days 1  
Since 1 July heating degree days 0  
Cooling Degree Days 18 16  
Month to date cooling degree days 368  
Year to date cooling degree days 1072  
Since 1 June cooling degree days 765  
Growing Degree Days 33 (Base 50)    
Moisture  
Dew Point 77 °F    
Average Humidity 85    
Maximum Humidity 100    
Minimum Humidity 66    
Precipitation  
Precipitation 0.00 in 0.19 in 2.52 in (1996)
Month to date precipitation 3.82  
Year to date precipitation 23.80  
Sea Level Pressure  
Sea Level Pressure 29.86 in    
Wind  
Wind Speed 5 mph (SW)    
Max Wind Speed 12 mph    
Max Gust Speed 16 mph    
Visibility 10 miles    
Events      
T = Trace of Precipitation, MM = Missing Value Source: NWS Daily Summary

Daily Weather History Graph

Daily Weather History Graph

Search for Another Location

Airport or City:

Trip Planner

Search our weather history database for the weather conditions in past years. The results will help you decide how hot, cold, wet, or windy it might be!

Date:

Astronomy

Jul. 23, 2013 Rise Set
Actual Time 6:25 AM EDT 8:26 PM EDT
Civil Twilight 5:57 AM EDT 8:53 PM EDT
Nautical Twilight 5:23 AM EDT 9:27 PM EDT
Astronomical Twilight 4:47 AM EDT 10:03 PM EDT
Moon 9:01 PM EDT (7/23) 7:26 AM EDT (7/23)
Length of Visible Light 14h 56m
Length of Day
14h 00m
Full, 99% of the Moon is Illuminated
Jul 23
Full
Jul 29
Last Quarter
Aug 6
New
Aug 14
First Quarter
Aug 20
Full

Hourly Weather History & Observations

Time (EDT) Temp. Heat Index Dew Point Humidity Pressure Visibility Wind Dir Wind Speed Gust Speed Precip Events Conditions
12:15 AM 78.8 °F - 77.0 °F 94% 29.92 in 10.0 mi SSW 3.5 mph - N/A   Clear
12:35 AM 78.8 °F - 75.2 °F 89% 29.92 in 10.0 mi SSW 4.6 mph - N/A   Clear
12:55 AM 78.8 °F - 75.2 °F 89% 29.92 in 10.0 mi SSW 4.6 mph - N/A   Clear
1:15 AM 78.8 °F - 75.2 °F 89% 29.91 in 10.0 mi SSW 3.5 mph - N/A   Clear
1:35 AM 77.0 °F - 75.2 °F 94% 29.91 in 10.0 mi South 3.5 mph - N/A   Clear
1:55 AM 77.0 °F - 75.2 °F 94% 29.91 in 10.0 mi SSW 4.6 mph - N/A   Clear
2:15 AM 77.0 °F - 77.0 °F 100% 29.90 in 10.0 mi SSW 4.6 mph - N/A   Clear
2:35 AM 77.0 °F - 77.0 °F 100% 29.90 in 10.0 mi South 5.8 mph - N/A   Scattered Clouds
2:55 AM 77.0 °F - 77.0 °F 100% 29.89 in 10.0 mi South 4.6 mph - N/A   Mostly Cloudy
3:15 AM 77.0 °F - 77.0 °F 100% 29.89 in 10.0 mi South 4.6 mph - N/A   Mostly Cloudy
3:35 AM 77.0 °F - 77.0 °F 100% 29.88 in 10.0 mi South 3.5 mph - N/A   Mostly Cloudy
3:55 AM 77.0 °F - 77.0 °F 100% 29.88 in 10.0 mi South 3.5 mph - N/A   Mostly Cloudy
4:15 AM 77.0 °F - 77.0 °F 100% 29.88 in 10.0 mi South 4.6 mph - N/A   Mostly Cloudy
4:35 AM 77.0 °F - 77.0 °F 100% 29.88 in 10.0 mi South 3.5 mph - N/A   Overcast
4:55 AM 77.0 °F - 77.0 °F 100% 29.88 in 10.0 mi SSW 4.6 mph - N/A   Overcast
5:15 AM 77.0 °F - 77.0 °F 100% 29.88 in 10.0 mi Calm Calm - N/A   Overcast
5:35 AM 77.0 °F - 77.0 °F 100% 29.89 in 10.0 mi SSW 4.6 mph - N/A   Overcast
5:55 AM 77.0 °F - 77.0 °F 100% 29.89 in 10.0 mi SSW 6.9 mph - N/A   Overcast
6:15 AM 77.0 °F - 77.0 °F 100% 29.89 in 10.0 mi SW 6.9 mph - N/A   Overcast
6:35 AM 77.0 °F - 77.0 °F 100% 29.90 in 10.0 mi SW 6.9 mph - N/A   Overcast
6:55 AM 77.0 °F - 77.0 °F 100% 29.90 in 10.0 mi SSW 3.5 mph - N/A   Overcast
7:15 AM 77.0 °F - 77.0 °F 100% 29.90 in 10.0 mi SSW 5.8 mph - N/A   Overcast
7:35 AM 77.0 °F - 77.0 °F 100% 29.90 in 10.0 mi SW 5.8 mph - N/A   Overcast
7:55 AM 77.0 °F - 77.0 °F 100% 29.90 in 10.0 mi SW 6.9 mph - N/A   Overcast
8:15 AM 77.0 °F - 77.0 °F 100% 29.90 in 10.0 mi SW 6.9 mph - N/A   Overcast
8:35 AM 78.8 °F - 77.0 °F 94% 29.90 in 10.0 mi SW 4.6 mph - N/A   Overcast
8:55 AM 78.8 °F - 77.0 °F 94% 29.90 in 10.0 mi SW 4.6 mph - N/A   Overcast
9:15 AM 78.8 °F - 77.0 °F 94% 29.90 in 10.0 mi WSW 8.1 mph - N/A   Overcast
9:35 AM 78.8 °F - 77.0 °F 94% 29.88 in 10.0 mi SSW 4.6 mph - N/A   Overcast
9:55 AM 80.6 °F 86.2 °F 75.2 °F 84% 29.88 in 10.0 mi WSW 10.4 mph - N/A   Overcast
10:15 AM 80.6 °F 86.2 °F 75.2 °F 84% 29.88 in 10.0 mi West 9.2 mph - N/A   Overcast
10:35 AM 80.6 °F 86.2 °F 75.2 °F 84% 29.88 in 10.0 mi SW 11.5 mph - N/A   Overcast
10:55 AM 82.4 °F 89.5 °F 75.2 °F 79% 29.88 in 10.0 mi West 11.5 mph - N/A   Mostly Cloudy
11:15 AM 82.4 °F 89.5 °F 75.2 °F 79% 29.89 in 10.0 mi West 6.9 mph 16.1 mph N/A   Mostly Cloudy
11:35 AM 82.4 °F 90.9 °F 77.0 °F 84% 29.88 in 10.0 mi SW 6.9 mph - N/A   Mostly Cloudy
11:55 AM 84.2 °F 94.1 °F 77.0 °F 79% 29.88 in 10.0 mi SW 6.9 mph - N/A   Mostly Cloudy
12:15 PM 86.0 °F 96.9 °F 77.0 °F 74% 29.88 in 10.0 mi WSW 10.4 mph - N/A   Mostly Cloudy
12:35 PM 86.0 °F 96.9 °F 77.0 °F 74% 29.88 in 10.0 mi SW 6.9 mph - N/A   Mostly Cloudy
12:55 PM 86.0 °F 95.1 °F 75.2 °F 70% 29.88 in 10.0 mi WSW 9.2 mph - N/A   Mostly Cloudy
1:15 PM 86.0 °F 96.9 °F 77.0 °F 74% 29.87 in 10.0 mi WSW 8.1 mph - N/A   Mostly Cloudy
1:35 PM 87.8 °F 99.7 °F 77.0 °F 70% 29.86 in 10.0 mi WSW 10.4 mph - N/A   Mostly Cloudy
1:55 PM 86.0 °F 96.9 °F 77.0 °F 74% 29.86 in 10.0 mi WSW 8.1 mph 16.1 mph N/A   Mostly Cloudy
2:15 PM 87.8 °F 99.7 °F 77.0 °F 70% 29.85 in 10.0 mi WSW 8.1 mph - N/A   Scattered Clouds
2:35 PM 87.8 °F 99.7 °F 77.0 °F 70% 29.85 in 10.0 mi WSW 9.2 mph - N/A   Mostly Cloudy
2:55 PM 87.8 °F 99.7 °F 77.0 °F 70% 29.84 in 10.0 mi SW 9.2 mph - N/A   Mostly Cloudy
3:15 PM 87.8 °F 99.7 °F 77.0 °F 70% 29.83 in 10.0 mi WSW 10.4 mph - N/A   Scattered Clouds
3:35 PM 89.6 °F 102.2 °F 77.0 °F 66% 29.82 in 10.0 mi SW 6.9 mph - N/A   Mostly Cloudy
3:55 PM 89.6 °F 102.2 °F 77.0 °F 66% 29.82 in 10.0 mi SW 9.2 mph - N/A   Scattered Clouds
4:15 PM 89.6 °F 102.2 °F 77.0 °F 66% 29.82 in 10.0 mi SW 8.1 mph - N/A   Scattered Clouds
4:35 PM 89.6 °F 102.2 °F 77.0 °F 66% 29.81 in 10.0 mi WSW 9.2 mph - N/A   Clear
4:55 PM 89.6 °F 102.2 °F 77.0 °F 66% 29.80 in 10.0 mi SSW 6.9 mph - N/A   Scattered Clouds
5:15 PM 89.6 °F 102.2 °F 77.0 °F 66% 29.80 in 10.0 mi SSW 8.1 mph - N/A   Scattered Clouds
5:35 PM 89.6 °F 102.2 °F 77.0 °F 66% 29.80 in 10.0 mi SSW 5.8 mph - N/A   Scattered Clouds
5:55 PM 89.6 °F 102.2 °F 77.0 °F 66% 29.79 in 10.0 mi South 8.1 mph - N/A   Scattered Clouds
6:15 PM 89.6 °F 102.2 °F 77.0 °F 66% 29.79 in 10.0 mi SSW 9.2 mph - N/A   Scattered Clouds
6:35 PM 89.6 °F 102.2 °F 77.0 °F 66% 29.79 in 10.0 mi South 5.8 mph - N/A   Clear
6:55 PM 87.8 °F 99.7 °F 77.0 °F 70% 29.79 in 10.0 mi South 5.8 mph - N/A   Clear
7:15 PM 87.8 °F 99.7 °F 77.0 °F 70% 29.79 in 10.0 mi SSW 4.6 mph - N/A   Clear
7:35 PM 87.8 °F 99.7 °F 77.0 °F 70% 29.79 in 10.0 mi SSW 3.5 mph - N/A   Clear
7:55 PM 86.0 °F 96.9 °F 77.0 °F 74% 29.80 in 10.0 mi SSW 3.5 mph - N/A   Clear
8:15 PM 86.0 °F 96.9 °F 77.0 °F 74% 29.80 in 10.0 mi Calm Calm - N/A   Clear
8:35 PM 82.4 °F 90.9 °F 77.0 °F 84% 29.80 in 10.0 mi Calm Calm - N/A   Clear
8:55 PM 82.4 °F 90.9 °F 77.0 °F 84% 29.81 in 10.0 mi Calm Calm - N/A   Clear
9:15 PM 82.4 °F 90.9 °F 77.0 °F 84% 29.81 in 10.0 mi Calm Calm - N/A   Clear
9:35 PM 80.6 °F 87.1 °F 77.0 °F 89% 29.82 in 10.0 mi Calm Calm - N/A   Clear
9:55 PM 80.6 °F 87.1 °F 77.0 °F 89% 29.83 in 10.0 mi South 3.5 mph - N/A   Clear
10:15 PM 80.6 °F 87.1 °F 77.0 °F 89% 29.83 in 10.0 mi South 4.6 mph - N/A   Clear
10:35 PM 80.6 °F 87.1 °F 77.0 °F 89% 29.83 in 10.0 mi SSW 3.5 mph - N/A   Clear
10:55 PM 80.6 °F 87.1 °F 77.0 °F 89% 29.83 in 10.0 mi Calm Calm - N/A   Scattered Clouds
11:15 PM 80.6 °F 87.1 °F 77.0 °F 89% 29.83 in 10.0 mi South 3.5 mph - N/A   Clear
11:35 PM 80.6 °F 87.1 °F 77.0 °F 89% 29.83 in 10.0 mi South 3.5 mph - N/A   Clear
11:55 PM 78.8 °F - 77.0 °F 94% 29.83 in 10.0 mi Calm Calm - N/A   Clear